Satellite: NOAA-17
Catalog number: 27453
Epoch time:      12284.78105128
Element set:    0869
Inclination:      098.3307 deg
RA of node:       305.9411 deg
Eccentricity:    0.0011910
Arg of perigee:   172.9359 deg
Mean anomaly:     187.1960 deg
Mean motion:   14.24491228 rev/day
Decay rate:        6.2e-07 rev/day^2
Epoch rev:           53521
Checksum:              306

Satellite: NOAA-18
Catalog number: 28654
Epoch time:      12284.66529438
Element set:    0350
Inclination:      099.0615 deg
RA of node:       243.7975 deg
Eccentricity:    0.0014025
Arg of perigee:   186.8758 deg
Mean anomaly:     173.2210 deg
Mean motion:   14.11711721 rev/day
Decay rate:       3.78e-06 rev/day^2
Epoch rev:           38085
Checksum:              318

Satellite: NOAA-19
Catalog number: 33591
Epoch time:      12284.69919545
Element set:    0538
Inclination:      098.8731 deg
RA of node:       223.1024 deg
Eccentricity:    0.0015050
Arg of perigee:   056.0809 deg
Mean anomaly:     304.1784 deg
Mean motion:   14.11396075 rev/day
Decay rate:        2.2e-07 rev/day^2
Epoch rev:           18930
Checksum:              301

/EX
SB KEPS @ AMSAT  $ORB12285.M
Orbital Elements  12285.MISC

HR AMSAT ORBITAL ELEMENTS FOR MANNED AND MISCELLANEOUS SATELLITES
FROM WA5QGD FORT WORTH,TX October 11, 2012
Send SUBSCRIBE KEPS/UNSUBSCRIBE KEPS to majordomo@amsat.org only
BID: ORB12285.M
TO ALL RADIO AMATEURS BT

Satellite: HUBBLE
Catalog number: 20580
Epoch time:      12284.95396560
Element set:      86
Inclination:      028.4694 deg
RA of node:       105.7673 deg
Eccentricity:    0.0003248
Arg of perigee:   206.4993 deg
Mean anomaly:     153.5499 deg
Mean motion:   15.02877865 rev/day
Decay rate:      1.913e-05 rev/day^2
Epoch rev:            3216
Checksum:              320

Satellite: ISS
Catalog number: 25544
Epoch time:      12285.86180905
Element set:     451
Inclination:      051.6476 deg
RA of node:       261.6894 deg
Eccentricity:    0.0017769
Arg of perigee:   155.8664 deg
Mean anomaly:     287.0425 deg
Mean motion:   15.50690175 rev/day
Decay rate:     1.7083e-04 rev/day^2
Epoch rev:           79614
Checksum:              335

Satellite: CO-58
Catalog number: 28895
Epoch time:      12285.80871761
Element set:     299
Inclination:      097.8982 deg
RA of node:       146.8563 deg
Eccentricity:    0.0018605
Arg of perigee:   141.0210 deg
Mean anomaly:     219.2346 deg
Mean motion:   14.60781092 rev/day
Decay rate:       6.97e-06 rev/day^2
Epoch rev:           37068
Checksum:              347

Satellite: FALCON
Catalog number: 30776
Epoch time:      12284.45950629
Element set:     456
Inclination:      035.4331 deg
RA of node:       292.3339 deg
Eccentricity:    0.0002642
Arg of perigee:   282.3180 deg
Mean anomaly:     077.7241 deg
Mean motion:   15.08431906 rev/day
Decay rate:      4.615e-05 rev/day^2
Epoch rev:           30766
Checksum:              294

Satellite: MAST
Catalog number: 31126
Epoch time:      12285.57419685
Element set:     579
Inclination:      097.8758 deg
RA of node:       289.8825 deg
Eccentricity:    0.0094656
Arg of perigee:   107.6566 deg
Mean anomaly:     253.4991 deg
Mean motion:   14.54279985 rev/day
Decay rate:       5.20e-06 rev/day^2
Epoch rev:           29118
Checksum:              368

Satellite: CAPE1
Catalog number: 31130
Epoch time:      12285.70616127
Element set:     589
Inclination:      097.8874 deg
RA of node:       286.3365 deg
Eccentricity:    0.0102237
Arg of perigee:   121.0660 deg
Mean anomaly:     240.0599 deg
Mean motion:   14.53097592 rev/day
Decay rate:       5.22e-06 rev/day^2
Epoch rev:           29069
Checksum:              304

Satellite: COMPASS
Catalog number: 32787
Epoch time:      12284.68962657
Element set:    0434
Inclination:      097.7885 deg
RA of node:       343.4184 deg
Eccentricity:    0.0015926
Arg of perigee:   046.2792 deg
Mean anomaly:     313.9716 deg
Mean motion:   14.84449008 rev/day
Decay rate:      2.357e-05 rev/day^2
Epoch rev:           24094
Checksum:              344

Satellite: AAUSAT2
Catalog number: 32788
Epoch time:      12284.76768667
Element set:    0426
Inclination:      097.7868 deg
RA of node:       343.9424 deg
Eccentricity:    0.0015556
Arg of perigee:   048.5144 deg
Mean anomaly:     311.7406 deg
Mean motion:   14.84806935 rev/day
Decay rate:      2.098e-05 rev/day^2
Epoch rev:           24098
Checksum:              354

Satellite: DO-64
Catalog number: 32789
Epoch time:      12284.89009309
Element set:    0443
Inclination:      097.8015 deg
RA of node:       346.5546 deg
Eccentricity:    0.0015047
Arg of perigee:   041.8360 deg
Mean anomaly:     318.3976 deg
Mean motion:   14.86617205 rev/day
Decay rate:      4.529e-05 rev/day^2
Epoch rev:           24106
Checksum:              326

Satellite: CO-66
Catalog number: 32791
Epoch time:      12284.72749741
Element set:    0423
Inclination:      097.7868 deg
RA of node:       343.0983 deg
Eccentricity:    0.0016352
Arg of perigee:   047.3332 deg
Mean anomaly:     312.9283 deg
Mean motion:   14.83784104 rev/day
Decay rate:      1.893e-05 rev/day^2
Epoch rev:           24087
Checksum:              334

